Fergus Falls, MN

5:52 PM CST on November 14, 2019 (GMT -0600)
Fergus Falls Municipal-Mickelson

Weather History for KFFM - September, 2019

Change the Weather History Date:

Monday, September 16, 2019

  Actual Average Record
Temperature  
Mean Temperature 75 °F -  
Max Temperature 84 °F 68 °F 91 °F (2018)
Min Temperature 66 °F 46 °F 34 °F (1959)
Cooling Degree Days 10    
Growing Degree Days 25 (Base 50)    
Moisture  
Dew Point 67 °F    
Average Humidity 80    
Maximum Humidity 94    
Minimum Humidity 66    
Precipitation  
Precipitation 0.01 in - - ()
Sea Level Pressure  
Sea Level Pressure 29.87 in    
Wind  
Wind Speed 12 mph ()    
Max Wind Speed 18 mph    
Max Gust Speed 25 mph    
Visibility 10.0 miles    
Events      
Averages and records for this station are not official NWS values.
T = Trace of Precipitation, MM = Missing Value Source: Averaged Metar Reports

Daily Weather History Graph

Daily Weather History Graph

Search for Another Location

Airport or City:

Astronomy

Sep. 16, 2019 Rise Set
Actual Time 7:03 AM CDT 7:34 PM CDT
Civil Twilight 6:33 AM CDT 8:04 PM CDT
Nautical Twilight 5:57 AM CDT 8:40 PM CDT
Astronomical Twilight 5:20 AM CDT 9:17 PM CDT
Moon 9:02 PM CDT (9/16) 9:16 AM CDT (9/16)
Length of Visible Light 13h 31m
Length of Day
12h 30m
Waning Gibbous, 94% of the Moon is Illuminated
Sep 16
Waning Gibbous
Sep 21
Last Quarter
Sep 28
New
Oct 5
First Quarter
Oct 13
Full

Hourly Weather History & Observations

Time (CDT) Temp. Heat Index Dew Point Humidity Pressure Visibility Wind Dir Wind Speed Gust Speed Precip Events Conditions
12:15 AM 68.0 °F - 64.4 °F 88% 29.93 in 10.0 mi SSE 9.2 mph - N/A   Clear
12:35 AM 68.0 °F - 64.4 °F 88% 29.93 in 10.0 mi SSE 9.2 mph - N/A   Clear
12:39 AM 68.0 °F - 64.4 °F 88% 29.93 in 10.0 mi SSE 9.2 mph - N/A   Clear
12:56 AM 68.0 °F - 64.4 °F 88% 29.93 in 10.0 mi SSE 9.2 mph - N/A   Clear
1:16 AM 68.0 °F - 64.4 °F 88% 29.93 in 10.0 mi SSE 9.2 mph - N/A   Clear
1:35 AM 68.0 °F - 64.4 °F 88% 29.93 in 10.0 mi SSE 9.2 mph - N/A   Clear
1:36 AM 68.0 °F - 64.4 °F 88% 29.93 in 10.0 mi SSE 9.2 mph - N/A   Clear
1:55 AM 68.0 °F - 64.4 °F 88% 29.93 in 10.0 mi SSE 9.2 mph - N/A   Clear
1:59 AM 68.0 °F - 64.4 °F 88% 29.93 in 10.0 mi SSE 8.1 mph - N/A   Clear
2:17 AM 68.0 °F - 64.4 °F 88% 29.93 in 10.0 mi SE 9.2 mph - N/A   Clear
2:35 AM 68.0 °F - 64.4 °F 88% 29.92 in 10.0 mi SE 11.5 mph - N/A   Clear
2:55 AM 68.0 °F - 64.4 °F 88% 29.92 in 10.0 mi SSE 11.5 mph - N/A   Clear
2:56 AM 68.0 °F - 64.4 °F 88% 29.92 in 10.0 mi SE 11.5 mph - N/A   Clear
3:15 AM 66.2 °F - 64.4 °F 94% 29.93 in 10.0 mi SSE 9.2 mph - 0.01 in   Clear
3:19 AM 66.2 °F - 64.4 °F 94% 29.93 in 10.0 mi SSE 11.5 mph - 0.01 in   Clear
3:38 AM 66.2 °F - 62.6 °F 88% 29.93 in 10.0 mi SSE 10.4 mph - 0.01 in   Clear
3:55 AM 66.2 °F - 62.6 °F 88% 29.92 in 10.0 mi SSE 12.7 mph - 0.01 in   Clear
4:15 AM 66.2 °F - 62.6 °F 88% 29.92 in 10.0 mi SSE 12.7 mph - N/A   Clear
4:35 AM 66.2 °F - 62.6 °F 88% 29.92 in 10.0 mi SSE 11.5 mph - N/A   Clear
4:58 AM 66.2 °F - 62.6 °F 88% 29.92 in 10.0 mi SE 10.4 mph - N/A   Clear
5:15 AM 66.2 °F - 62.6 °F 88% 29.91 in 10.0 mi SSE 11.5 mph - N/A   Clear
5:35 AM 66.2 °F - 62.6 °F 88% 29.91 in 10.0 mi SSE 11.5 mph - N/A   Clear
5:36 AM 66.2 °F - 62.6 °F 88% 29.91 in 10.0 mi SSE 10.4 mph - N/A   Clear
5:55 AM 66.2 °F - 62.6 °F 88% 29.90 in 10.0 mi SSE 13.8 mph - N/A   Clear
5:56 AM 66.2 °F - 62.6 °F 88% 29.90 in 10.0 mi SSE 12.7 mph - N/A   Clear
6:19 AM 66.2 °F - 62.6 °F 88% 29.89 in 10.0 mi SSE 15.0 mph - N/A   Clear
6:36 AM 68.0 °F - 62.6 °F 83% 29.89 in 10.0 mi SSE 13.8 mph - N/A   Scattered Clouds
6:56 AM 66.2 °F - 62.6 °F 88% 29.89 in 10.0 mi SSE 15.0 mph - N/A   Clear
7:15 AM 66.2 °F - 62.6 °F 88% 29.89 in 10.0 mi SSE 12.7 mph 18.4 mph N/A   Clear
7:16 AM 66.2 °F - 62.6 °F 88% 29.89 in 10.0 mi SSE 13.8 mph 18.4 mph N/A   Clear
7:35 AM 68.0 °F - 62.6 °F 83% 29.90 in 10.0 mi SSE 13.8 mph - N/A   Clear
7:39 AM 68.0 °F - 62.6 °F 83% 29.90 in 10.0 mi SSE 13.8 mph - N/A   Clear
7:57 AM 69.8 °F - 64.4 °F 83% 29.90 in 10.0 mi SSE 13.8 mph - N/A   Clear
8:16 AM 69.8 °F - 64.4 °F 83% 29.90 in 10.0 mi SSE 15.0 mph - N/A   Clear
8:36 AM 69.8 °F - 64.4 °F 83% 29.89 in 10.0 mi SSE 13.8 mph - N/A   Clear
8:55 AM 69.8 °F - 64.4 °F 83% 29.89 in 10.0 mi SSE 13.8 mph - N/A   Clear
8:59 AM 69.8 °F - 64.4 °F 83% 29.89 in 10.0 mi SSE 12.7 mph - N/A   Clear
9:17 AM 71.6 °F - 66.2 °F 83% 29.89 in 10.0 mi SSE 15.0 mph - N/A   Clear
9:36 AM 71.6 °F - 66.2 °F 83% 29.89 in 10.0 mi SSE 15.0 mph - N/A   Clear
9:55 AM 73.4 °F - 66.2 °F 78% 29.88 in 10.0 mi SSE 15.0 mph 20.7 mph N/A   Clear
9:56 AM 73.4 °F - 66.2 °F 78% 29.88 in 10.0 mi SSE 16.1 mph 20.7 mph N/A   Clear
10:15 AM 73.4 °F - 66.2 °F 78% 29.88 in 10.0 mi SSE 16.1 mph 23.0 mph N/A   Clear
10:37 AM 75.2 °F - 66.2 °F 73% 29.87 in 10.0 mi SSE 17.3 mph 25.3 mph N/A   Clear
10:55 AM 77.0 °F - 68.0 °F 74% 29.87 in 10.0 mi SSE 18.4 mph - N/A   Clear
11:15 AM 77.0 °F - 68.0 °F 74% 29.87 in 10.0 mi SSE 17.3 mph 21.9 mph N/A   Clear
11:35 AM 75.2 °F - 66.2 °F 73% 29.87 in 10.0 mi SSE 18.4 mph 23.0 mph N/A   Clear
11:36 AM 75.2 °F - 66.2 °F 73% 29.87 in 10.0 mi SSE 18.4 mph 23.0 mph N/A   Clear
11:58 AM 77.0 °F - 68.0 °F 74% 29.88 in 10.0 mi SSE 15.0 mph - N/A   Clear
12:17 PM 78.8 °F - 68.0 °F 69% 29.87 in 10.0 mi SSE 18.4 mph - N/A   Clear
12:36 PM 80.6 °F 83.9 °F 69.8 °F 70% 29.87 in 10.0 mi SSE 17.3 mph 21.9 mph N/A   Clear
12:55 PM 80.6 °F 83.9 °F 69.8 °F 70% 29.87 in 10.0 mi South 16.1 mph - N/A   Clear
12:56 PM 80.6 °F 83.9 °F 69.8 °F 70% 29.87 in 10.0 mi South 18.4 mph - N/A   Clear
1:15 PM 80.6 °F 83.9 °F 69.8 °F 70% 29.87 in 10.0 mi South 17.3 mph - N/A   Clear
1:38 PM 80.6 °F 83.9 °F 69.8 °F 70% 29.86 in 10.0 mi SSE 18.4 mph - N/A   Clear
1:55 PM 80.6 °F 83.9 °F 69.8 °F 70% 29.85 in 10.0 mi SSE 16.1 mph - N/A   Clear
2:15 PM 82.4 °F 87.2 °F 71.6 °F 70% 29.85 in 10.0 mi SSE 16.1 mph - N/A   Clear
2:16 PM 82.4 °F 87.2 °F 71.6 °F 70% 29.85 in 10.0 mi SSE 17.3 mph - N/A   Clear
2:35 PM 82.4 °F 87.2 °F 71.6 °F 70% 29.85 in 10.0 mi SSE 17.3 mph - N/A   Clear
2:36 PM 82.4 °F 87.2 °F 71.6 °F 70% 29.85 in 10.0 mi SSE 16.1 mph - N/A   Clear
2:58 PM 84.2 °F 89.6 °F 71.6 °F 66% 29.84 in 10.0 mi SSE 17.3 mph 21.9 mph N/A   Clear
3:16 PM 84.2 °F 89.6 °F 71.6 °F 66% 29.84 in 10.0 mi SSE 15.0 mph 20.7 mph N/A   Clear
3:35 PM 84.2 °F 89.6 °F 71.6 °F 66% 29.84 in 10.0 mi SSE 13.8 mph - N/A   Clear
3:36 PM 84.2 °F 89.6 °F 71.6 °F 66% 29.84 in 10.0 mi SSE 13.8 mph - N/A   Clear
3:55 PM 84.2 °F 89.6 °F 71.6 °F 66% 29.84 in 10.0 mi SSE 12.7 mph 20.7 mph N/A   Clear
3:56 PM 84.2 °F 89.6 °F 71.6 °F 66% 29.83 in 10.0 mi SSE 13.8 mph 20.7 mph N/A   Clear
4:15 PM 84.2 °F 89.6 °F 71.6 °F 66% 29.83 in 10.0 mi South 16.1 mph - N/A   Clear
4:19 PM 84.2 °F 89.6 °F 71.6 °F 66% 29.83 in 10.0 mi SSE 13.8 mph - N/A   Clear
4:38 PM 82.4 °F 87.2 °F 71.6 °F 70% 29.84 in 10.0 mi SSE 16.1 mph - N/A   Clear
4:55 PM 82.4 °F 87.2 °F 71.6 °F 70% 29.83 in 10.0 mi SSE 13.8 mph - N/A   Clear
5:15 PM 82.4 °F 87.2 °F 71.6 °F 70% 29.83 in 10.0 mi SSE 11.5 mph - N/A   Clear
5:16 PM 80.6 °F 84.6 °F 71.6 °F 74% 29.83 in 10.0 mi SSE 11.5 mph - N/A   Clear
5:35 PM 80.6 °F 84.6 °F 71.6 °F 74% 29.83 in 10.0 mi SSE 15.0 mph - N/A   Clear
5:36 PM 80.6 °F 84.6 °F 71.6 °F 74% 29.83 in 10.0 mi SSE 15.0 mph - N/A   Clear
5:59 PM 80.6 °F 84.6 °F 71.6 °F 74% 29.83 in 10.0 mi SSE 17.3 mph 20.7 mph N/A   Clear
6:16 PM 80.6 °F 84.6 °F 71.6 °F 74% 29.83 in 10.0 mi SSE 12.7 mph - N/A   Clear
6:36 PM 80.6 °F 84.6 °F 71.6 °F 74% 29.83 in 10.0 mi SSE 13.8 mph 18.4 mph N/A   Clear
6:55 PM 78.8 °F - 71.6 °F 78% 29.83 in 10.0 mi SSE 12.7 mph - N/A   Clear
7:15 PM 78.8 °F - 71.6 °F 78% 29.84 in 10.0 mi SSE 12.7 mph - N/A   Clear
7:19 PM 78.8 °F - 71.6 °F 78% 29.84 in 10.0 mi SSE 11.5 mph - N/A   Clear
7:37 PM 78.8 °F - 69.8 °F 74% 29.84 in 10.0 mi SSE 16.1 mph - N/A   Clear
7:56 PM 77.0 °F - 69.8 °F 78% 29.84 in 10.0 mi SSE 16.1 mph - N/A   Clear
8:15 PM 75.2 °F - 69.8 °F 83% 29.84 in 10.0 mi SSE 12.7 mph - N/A   Clear
8:35 PM 75.2 °F - 69.8 °F 83% 29.85 in 10.0 mi SSE 12.7 mph 19.6 mph N/A   Clear
8:36 PM 75.2 °F - 69.8 °F 83% 29.85 in 10.0 mi SSE 12.7 mph - N/A   Clear
8:59 PM 75.2 °F - 69.8 °F 83% 29.85 in 10.0 mi SSE 12.7 mph 18.4 mph N/A   Clear
9:17 PM 75.2 °F - 69.8 °F 83% 29.85 in 10.0 mi SSE 13.8 mph 18.4 mph N/A   Clear
9:36 PM 75.2 °F - 69.8 °F 83% 29.85 in 10.0 mi SSE 13.8 mph - N/A   Clear
9:55 PM 75.2 °F - 69.8 °F 83% 29.85 in 10.0 mi SSE 16.1 mph - N/A   Clear
9:56 PM 75.2 °F - 69.8 °F 83% 29.85 in 10.0 mi SSE 17.3 mph - N/A   Clear
10:15 PM 75.2 °F - 69.8 °F 83% 29.85 in 10.0 mi South 15.0 mph - N/A   Clear
10:37 PM 75.2 °F - 69.8 °F 83% 29.85 in 10.0 mi SSE 12.7 mph - N/A   Clear
10:55 PM 75.2 °F - 69.8 °F 83% 29.85 in 10.0 mi South 13.8 mph - N/A   Clear
11:15 PM 75.2 °F - 69.8 °F 83% 29.85 in 10.0 mi South 13.8 mph - N/A   Clear
11:16 PM 75.2 °F - 69.8 °F 83% 29.85 in 10.0 mi South 13.8 mph - N/A   Clear
11:35 PM 75.2 °F - 69.8 °F 83% 29.85 in 10.0 mi South 13.8 mph - N/A   Clear
11:36 PM 75.2 °F - 69.8 °F 83% 29.85 in 10.0 mi South 13.8 mph - N/A   Clear
11:58 PM 75.2 °F - 69.8 °F 83% 29.85 in 10.0 mi SSE 13.8 mph - N/A   Clear